Location: Kermapucano
(48.0667°N, 3.3000°W)
Time: 18:47:08
(UTC+00:00)

Cosmos 990 Rocket - Pass Details

Date: 29 November 2020
Orbit: 748 x 768 km, 74.0° (Epoch: 27 January)

Event Time Altitude Azimuth Distance (km) Brightness Sun altitude
Rises 05:27:39 0° 199° (SSW) 3,215 7.1 -21.4°
Reaches altitude 10° 05:30:00 10° 199° (SSW) 2,296 6.4 -21.0°
Maximum altitude 05:35:14 86° 113° (ESE) 775 4.0 -20.2°
Drops below altitude 10° 05:40:31 10° 24° (NNE) 2,319 6.6 -19.3°
Sets 05:42:54 0° 24° (NNE) 3,250 7.4 -18.9°
